User: anonymous   Login
Location: Unspecified
(0.0000°N, 0.0000°E)
Time: 02:06:26
(UTC+00:00)
Language:

SHIYUAN 6 02 (SY-6 02) - Orbit

View from above orbital plane
View from above orbital plane
View from above satellite
View from above satellite

Ground track
Ground track

The orbit is defined by the following mean orbital elements,

1 45859U          26145.28573580 +.00000000 +00000-0 +51478-4 0 00009
2 45859  98.1848 156.8409 0127639 298.4727  60.3665 14.60918963    04
Epoch (UTC): 25 May 2026 06:51:27
Eccentricity: 0.0127639
inclination: 98.1848°
perigee height: 600 km
apogee height: 780 km
right ascension of ascending node: 156.8409°
argument of perigee: 298.4727°
revolutions per day: 14.60918963
mean anomaly at epoch: 60.3665°

The dashed part of the orbit path shows where the satellite is in the earth's shadow,  

DLR